Denison, IA

5:52 PM CST on February 08, 2016 (GMT -0600)
Denison Municipal

Weather History for KDNS - February, 2012

Change the Weather History Date:

Wednesday, February 8, 2012

  Actual Average Record
Temperature  
Mean Temperature 12 °F -  
Max Temperature 26 °F 32 °F 62 °F (1999)
Min Temperature -2 °F 17 °F -13 °F (2011)
Degree Days  
Heating Degree Days 53    
Moisture  
Dew Point 14 °F    
Average Humidity 92    
Maximum Humidity 100    
Minimum Humidity 69    
Precipitation  
Precipitation 0.00 in - - ()
Sea Level Pressure  
Sea Level Pressure 30.46 in    
Wind  
Wind Speed 2 mph (West)    
Max Wind Speed 8 mph    
Max Gust Speed -    
Visibility 10 miles    
Events      
Averages and records for this station are not official NWS values.
T = Trace of Precipitation, MM = Missing Value Source: NWS Daily Summary

Daily Weather History Graph

Daily Weather History Graph

Search for Another Location

Airport or City:

Trip Planner

Search our weather history database for the weather conditions in past years. The results will help you decide how hot, cold, wet, or windy it might be!

Date:

Astronomy

Feb. 08, 2012 Rise Set
Actual Time 7:27 AM CST 5:44 PM CST
Civil Twilight 6:57 AM CST 6:14 PM CST
Nautical Twilight 6:24 AM CST 6:47 PM CST
Astronomical Twilight 5:52 AM CST 7:19 PM CST
Moon 7:07 PM CST 7:29 AM CST
Length of Visible Light 11h 16m
Length of Day
10h 17m
Full, 99% of the Moon is Illuminated
Feb 8
Full
Feb 14
Last Quarter
Feb 21
New
Feb 29
First Quarter
Mar 8
Full

Hourly Weather History & Observations

Time (CST) Temp. Windchill Dew Point Humidity Pressure Visibility Wind Dir Wind Speed Gust Speed Precip Events Conditions
12:15 AM 21.2 °F 16.4 °F 21.2 °F 100% 30.51 in 10.0 mi North 3.5 mph - N/A   Overcast
12:35 AM 21.2 °F - 21.2 °F 100% 30.51 in 10.0 mi Calm Calm - N/A   Overcast
12:55 AM 21.2 °F - 21.2 °F 100% 30.50 in 10.0 mi Calm Calm - N/A   Overcast
1:15 AM 21.2 °F 14.9 °F 21.2 °F 100% 30.50 in 10.0 mi NNW 4.6 mph - N/A   Overcast
1:35 AM 21.2 °F - 21.2 °F 100% 30.50 in 10.0 mi Calm Calm - N/A   Overcast
1:55 AM 21.2 °F - 21.2 °F 100% 30.50 in 10.0 mi Calm Calm - N/A   Overcast
2:15 AM 21.2 °F 14.9 °F 21.2 °F 100% 30.50 in 10.0 mi NNW 4.6 mph - N/A   Overcast
2:35 AM 19.4 °F 11.5 °F 19.4 °F 100% 30.50 in 10.0 mi North 5.8 mph - N/A   Scattered Clouds
2:55 AM 17.6 °F 10.7 °F 17.6 °F 100% 30.49 in 10.0 mi North 4.6 mph - N/A   Clear
3:15 AM 17.6 °F 9.3 °F 17.6 °F 100% 30.49 in 10.0 mi North 5.8 mph - N/A   Clear
3:35 AM 14.0 °F 6.5 °F 14.0 °F 100% 30.48 in 10.0 mi North 4.6 mph - N/A   Clear
3:55 AM 14.0 °F 6.5 °F 14.0 °F 100% 30.49 in 10.0 mi North 4.6 mph - N/A   Clear
4:15 AM 10.4 °F - 10.4 °F 100% 30.49 in 10.0 mi Calm Calm - N/A   Clear
4:35 AM 10.4 °F - 10.4 °F 100% 30.50 in 10.0 mi Calm Calm - N/A   Clear
4:55 AM 8.6 °F - 8.6 °F 100% 30.49 in 10.0 mi Calm Calm - N/A   Clear
5:15 AM 6.8 °F - 6.8 °F 100% 30.50 in 10.0 mi Calm Calm - N/A   Clear
5:35 AM 6.8 °F - 6.8 °F 100% 30.50 in 10.0 mi Calm Calm - N/A   Clear
5:55 AM 6.8 °F - 6.8 °F 100% 30.49 in 10.0 mi Calm Calm - N/A   Clear
6:15 AM 3.2 °F - 3.2 °F 100% 30.49 in 10.0 mi Calm Calm - N/A   Clear
6:35 AM 1.4 °F - 1.4 °F 100% 30.49 in 10.0 mi Calm Calm - N/A   Clear
6:55 AM -0.4 °F - -0.4 °F 100% 30.49 in 10.0 mi Calm Calm - N/A   Clear
7:15 AM 1.4 °F - 1.4 °F 100% 30.49 in 10.0 mi Calm Calm - N/A   Clear
7:35 AM -0.4 °F - -0.4 °F 100% 30.48 in 10.0 mi Calm Calm - N/A   Clear
7:55 AM -2.2 °F - -2.2 °F 100% 30.49 in 10.0 mi Calm Calm - N/A   Clear
8:15 AM 1.4 °F - 1.4 °F 100% 30.48 in 10.0 mi Calm Calm - N/A   Clear
8:35 AM 1.4 °F - 1.4 °F 100% 30.48 in 10.0 mi Calm Calm - N/A   Clear
8:55 AM 1.4 °F - 1.4 °F 100% 30.48 in 10.0 mi Calm Calm - N/A   Clear
9:15 AM 5.0 °F - 5.0 °F 100% 30.48 in 10.0 mi Calm Calm - N/A   Clear
9:35 AM 6.8 °F - 6.8 °F 100% 30.49 in 10.0 mi Calm Calm - N/A   Clear
9:55 AM 8.6 °F - 8.6 °F 100% 30.49 in 10.0 mi Calm Calm - N/A   Clear
10:15 AM 12.2 °F - 12.2 °F 100% 30.49 in 10.0 mi Calm Calm - N/A   Clear
10:35 AM 14.0 °F - 14.0 °F 100% 30.49 in 10.0 mi Calm Calm - N/A   Clear
10:55 AM 15.8 °F 8.6 °F 15.8 °F 100% 30.50 in 10.0 mi SSW 4.6 mph - N/A   Clear
11:15 AM 17.6 °F - 15.8 °F 93% 30.50 in 10.0 mi Calm Calm - N/A   Clear
11:35 AM 19.4 °F - 15.8 °F 86% 30.50 in 10.0 mi Calm Calm - N/A   Clear
11:55 AM 21.2 °F 16.4 °F 15.8 °F 80% 30.49 in 10.0 mi SSW 3.5 mph - N/A   Clear
12:15 PM 21.2 °F - 15.8 °F 80% 30.47 in 10.0 mi Calm Calm - N/A   Clear
12:35 PM 23.0 °F 18.4 °F 15.8 °F 74% 30.46 in 10.0 mi West 3.5 mph - N/A   Clear
12:55 PM 23.0 °F 17.0 °F 15.8 °F 74% 30.45 in 10.0 mi WSW 4.6 mph - N/A   Clear
1:15 PM 24.8 °F 19.1 °F 15.8 °F 69% 30.44 in 10.0 mi WSW 4.6 mph - N/A   Clear
1:35 PM 24.8 °F 19.1 °F 17.6 °F 74% 30.44 in 10.0 mi WSW 4.6 mph - N/A   Clear
1:55 PM 26.6 °F 20.0 °F 17.6 °F 69% 30.42 in 10.0 mi SW 5.8 mph - N/A   Clear
2:15 PM 26.6 °F 18.2 °F 19.4 °F 74% 30.42 in 10.0 mi West 8.1 mph - N/A   Clear
2:35 PM 26.6 °F 19.1 °F 19.4 °F 74% 30.41 in 10.0 mi West 6.9 mph - N/A   Clear
2:55 PM 24.8 °F 16.9 °F 19.4 °F 80% 30.41 in 10.0 mi West 6.9 mph - N/A   Clear
3:15 PM 26.6 °F 18.2 °F 19.4 °F 74% 30.41 in 10.0 mi SW 8.1 mph - N/A   Clear
3:35 PM 26.6 °F 19.1 °F 19.4 °F 74% 30.40 in 10.0 mi SW 6.9 mph - N/A   Clear
3:55 PM 24.8 °F 16.1 °F 19.4 °F 80% 30.40 in 10.0 mi SW 8.1 mph - N/A   Clear
4:15 PM 24.8 °F 16.9 °F 19.4 °F 80% 30.40 in 10.0 mi WSW 6.9 mph - N/A   Clear
4:35 PM 24.8 °F 19.1 °F 19.4 °F 80% 30.39 in 10.0 mi SW 4.6 mph - N/A   Clear
4:55 PM 24.8 °F 19.1 °F 21.2 °F 86% 30.39 in 10.0 mi SW 4.6 mph - N/A   Clear
5:15 PM 24.8 °F - 21.2 °F 86% 30.38 in 10.0 mi Calm Calm - N/A   Clear
5:35 PM 23.0 °F - 21.2 °F 93% 30.38 in 10.0 mi Calm Calm - N/A   Clear
5:55 PM 19.4 °F - 19.4 °F 100% 30.38 in 10.0 mi Calm Calm - N/A   Clear
6:15 PM 19.4 °F - 19.4 °F 100% 30.37 in 10.0 mi Calm Calm - N/A   Clear
6:35 PM 17.6 °F - 17.6 °F 100% 30.37 in 10.0 mi Calm Calm - N/A   Clear
6:55 PM 17.6 °F - 17.6 °F 100% 30.37 in 10.0 mi Calm Calm - N/A   Clear
7:15 PM 14.0 °F - 14.0 °F 100% 30.38 in 10.0 mi Calm Calm - N/A   Clear
7:35 PM 12.2 °F 6.1 °F 12.2 °F 100% 30.37 in 10.0 mi ESE 3.5 mph - N/A   Clear
7:55 PM 12.2 °F 6.1 °F 12.2 °F 100% 30.36 in 10.0 mi ESE 3.5 mph - N/A   Clear
8:35 PM 8.6 °F - 8.6 °F 100% 30.36 in 10.0 mi Calm Calm - N/A   Clear
8:55 PM 6.8 °F - 6.8 °F 100% 30.36 in 7.0 mi Calm Calm - N/A   Clear
9:15 PM 6.8 °F - 6.8 °F 100% 30.36 in 7.0 mi Calm Calm - N/A   Clear
9:35 PM 6.8 °F - 6.8 °F 100% 30.36 in 7.0 mi Calm Calm - N/A   Clear
9:55 PM 8.6 °F - 8.6 °F 100% 30.36 in 10.0 mi Calm Calm - N/A   Clear
10:15 PM 8.6 °F - 8.6 °F 100% 30.36 in 10.0 mi Calm Calm - N/A   Clear
10:35 PM 8.6 °F - 8.6 °F 100% 30.36 in 7.0 mi Calm Calm - N/A   Clear
10:55 PM 8.6 °F - 8.6 °F 100% 30.35 in 7.0 mi Calm Calm - N/A   Clear
11:15 PM 6.8 °F - 6.8 °F 100% 30.35 in 5.0 mi Calm Calm - N/A   Clear
11:55 PM 6.8 °F - 6.8 °F 100% 30.34 in 7.0 mi Calm Calm - N/A   Mostly Cloudy